TimeCDT,TemperatureF,Dew PointF,Humidity,Sea Level PressureIn,VisibilityMPH,Wind Direction,Wind SpeedMPH,Gust SpeedMPH,PrecipitationIn,Events,Conditions,WindDirDegrees,DateUTC
12:15 AM,78.3,45.9,32,30.02,10.0,SSE,13.8,20.7,N/A,,Clear,160,2013-07-07 05:15:00
12:35 AM,77.5,46.0,33,30.02,10.0,SSE,13.8,19.6,N/A,,Clear,160,2013-07-07 05:35:00
12:55 AM,77.0,46.4,34,30.02,10.0,SSE,15.0,-,N/A,,Scattered Clouds,160,2013-07-07 05:55:00
1:15 AM,77.2,46.8,34,30.02,10.0,SSE,15.0,20.7,N/A,,Clear,160,2013-07-07 06:15:00
1:35 AM,76.5,47.5,36,30.02,10.0,SSE,13.8,-,N/A,,Scattered Clouds,160,2013-07-07 06:35:00
1:55 AM,75.6,48.0,38,30.02,10.0,South,15.0,-,N/A,,Mostly Cloudy,170,2013-07-07 06:55:00
2:15 AM,74.3,48.6,40,30.02,10.0,SSE,12.7,-,N/A,,Scattered Clouds,160,2013-07-07 07:15:00
2:35 AM,73.9,49.1,41,30.02,10.0,South,11.5,-,N/A,,Mostly Cloudy,170,2013-07-07 07:35:00
2:55 AM,73.9,49.3,42,30.03,10.0,South,9.2,-,N/A,,Overcast,190,2013-07-07 07:55:00
3:15 AM,73.8,49.6,43,30.03,10.0,South,6.9,-,N/A,Thunderstorm,Overcast,180,2013-07-07 08:15:00
3:35 AM,74.7,49.1,40,30.04,10.0,South,13.8,-,N/A,,Mostly Cloudy,180,2013-07-07 08:35:00
3:55 AM,74.3,52.3,46,30.04,10.0,SSW,12.7,16.1,N/A,,Scattered Clouds,200,2013-07-07 08:55:00
4:15 AM,73.8,51.1,45,30.04,10.0,SSW,10.4,-,N/A,,Scattered Clouds,200,2013-07-07 09:15:00
4:35 AM,74.8,50.0,42,30.04,10.0,South,15.0,19.6,N/A,,Scattered Clouds,190,2013-07-07 09:35:00
4:55 AM,72.1,55.2,55,30.04,10.0,South,15.0,19.6,N/A,Rain,Rain,180,2013-07-07 09:55:00
5:15 AM,71.1,55.6,58,30.04,10.0,South,13.8,-,N/A,,Overcast,190,2013-07-07 10:15:00
5:35 AM,71.6,54.7,55,30.04,10.0,South,9.2,-,N/A,,Overcast,170,2013-07-07 10:35:00
5:55 AM,71.2,53.8,54,30.05,10.0,South,5.8,-,N/A,,Mostly Cloudy,170,2013-07-07 10:55:00
6:15 AM,70.9,54.0,55,30.05,10.0,South,5.8,-,N/A,,Clear,170,2013-07-07 11:15:00
6:35 AM,70.2,54.0,56,30.06,10.0,South,5.8,-,N/A,,Clear,190,2013-07-07 11:35:00
6:55 AM,68.9,54.9,61,30.07,10.0,South,5.8,-,N/A,,Mostly Cloudy,170,2013-07-07 11:55:00
7:15 AM,68.4,55.0,62,30.08,10.0,South,5.8,-,N/A,,Scattered Clouds,180,2013-07-07 12:15:00
7:35 AM,68.0,55.2,64,30.08,10.0,South,5.8,-,N/A,,Clear,170,2013-07-07 12:35:00
7:55 AM,69.1,55.0,61,30.08,10.0,SSW,4.6,-,N/A,,Clear,200,2013-07-07 12:55:00
8:15 AM,70.5,54.5,57,30.08,10.0,SSW,9.2,-,N/A,,Clear,200,2013-07-07 13:15:00
8:35 AM,73.4,53.2,49,30.08,10.0,SSW,8.1,-,N/A,,Clear,210,2013-07-07 13:35:00
8:55 AM,73.6,53.1,49,30.09,10.0,SSW,8.1,-,N/A,,Scattered Clouds,200,2013-07-07 13:55:00
9:15 AM,75.2,52.3,45,30.09,10.0,SSW,10.4,-,N/A,,Scattered Clouds,210,2013-07-07 14:15:00
9:35 AM,76.3,54.0,46,30.10,10.0,SSW,11.5,-,N/A,,Clear,210,2013-07-07 14:35:00
9:55 AM,78.1,53.8,43,30.10,10.0,SSW,12.7,18.4,N/A,,Clear,210,2013-07-07 14:55:00
10:15 AM,79.5,52.7,39,30.10,10.0,SW,17.3,21.9,N/A,,Clear,220,2013-07-07 15:15:00
10:35 AM,81.1,52.0,36,30.09,10.0,SSW,17.3,21.9,N/A,,Scattered Clouds,200,2013-07-07 15:35:00
10:55 AM,81.5,51.6,35,30.10,10.0,SSW,17.3,21.9,N/A,,Clear,200,2013-07-07 15:55:00
11:15 AM,82.2,52.7,36,30.10,10.0,SSW,12.7,18.4,N/A,,Clear,200,2013-07-07 16:15:00
11:35 AM,81.0,52.7,37,30.10,10.0,SSW,13.8,24.2,N/A,,Mostly Cloudy,200,2013-07-07 16:35:00
11:55 AM,83.5,51.4,33,30.09,10.0,SSW,18.4,27.6,N/A,,Mostly Cloudy,200,2013-07-07 16:55:00
12:15 PM,84.6,50.4,31,30.10,10.0,SSW,20.7,25.3,N/A,,Scattered Clouds,200,2013-07-07 17:15:00
12:35 PM,86.0,51.3,30,30.09,10.0,SSW,18.4,24.2,N/A,,Clear,200,2013-07-07 17:35:00
12:55 PM,86.4,51.4,30,30.09,10.0,SSW,18.4,25.3,N/A,,Clear,200,2013-07-07 17:55:00
1:15 PM,87.1,51.6,29,30.09,10.0,South,17.3,26.5,N/A,,Clear,190,2013-07-07 18:15:00
1:35 PM,88.0,52.0,29,30.09,10.0,South,17.3,25.3,N/A,,Clear,180,2013-07-07 18:35:00
1:55 PM,88.3,51.8,28,30.08,10.0,SSW,20.7,25.3,N/A,,Scattered Clouds,210,2013-07-07 18:55:00
2:15 PM,90.0,51.3,27,30.08,10.0,South,17.3,24.2,N/A,,Clear,180,2013-07-07 19:15:00
2:35 PM,90.5,48.0,23,30.07,10.0,South,19.6,25.3,N/A,,Clear,180,2013-07-07 19:35:00
2:55 PM,91.4,48.2,23,30.07,10.0,South,18.4,23.0,N/A,,Clear,180,2013-07-07 19:55:00
3:15 PM,90.5,47.5,23,30.06,10.0,SSW,16.1,20.7,N/A,,Clear,200,2013-07-07 20:15:00
3:35 PM,91.4,47.8,22,30.05,10.0,SSW,13.8,21.9,N/A,,Clear,200,2013-07-07 20:35:00
3:55 PM,91.9,48.7,23,30.05,10.0,SSW,11.5,20.7,N/A,,Clear,200,2013-07-07 20:55:00
4:15 PM,92.8,48.6,22,30.05,10.0,South,13.8,23.0,N/A,,Clear,190,2013-07-07 21:15:00
4:35 PM,90.9,47.1,22,30.05,10.0,South,15.0,25.3,N/A,,Clear,180,2013-07-07 21:35:00
4:55 PM,91.4,46.4,21,30.04,10.0,South,15.0,20.7,N/A,,Clear,170,2013-07-07 21:55:00
5:15 PM,89.8,49.1,25,30.04,10.0,South,12.7,20.7,N/A,,Scattered Clouds,170,2013-07-07 22:15:00
5:35 PM,89.6,48.4,24,30.04,10.0,South,16.1,-,N/A,,Scattered Clouds,170,2013-07-07 22:35:00
5:55 PM,90.0,47.1,23,30.04,10.0,South,15.0,20.7,N/A,,Scattered Clouds,180,2013-07-07 22:55:00
6:15 PM,89.8,47.1,23,30.04,10.0,SSE,15.0,-,N/A,,Clear,160,2013-07-07 23:15:00
6:35 PM,88.7,47.7,24,30.04,10.0,SSE,11.5,-,N/A,,Clear,160,2013-07-07 23:35:00
6:55 PM,90.3,49.3,24,30.03,10.0,SSE,12.7,-,N/A,,Clear,160,2013-07-07 23:55:00
7:15 PM,89.2,48.6,25,30.04,10.0,South,13.8,-,N/A,,Clear,170,2013-07-08 00:15:00
7:35 PM,89.2,48.6,25,30.04,10.0,SSE,15.0,20.7,N/A,,Clear,160,2013-07-08 00:35:00
7:55 PM,88.0,49.1,26,30.04,10.0,SSE,15.0,-,N/A,,Clear,150,2013-07-08 00:55:00
8:15 PM,86.9,49.8,28,30.05,10.0,SSE,11.5,19.6,N/A,,Clear,160,2013-07-08 01:15:00
8:35 PM,86.0,50.9,30,30.05,10.0,SSE,11.5,-,N/A,,Clear,150,2013-07-08 01:35:00
8:55 PM,84.6,49.3,29,30.06,10.0,SSE,13.8,-,N/A,,Clear,150,2013-07-08 01:55:00
9:15 PM,83.3,48.6,30,30.07,10.0,SSE,13.8,-,N/A,,Clear,150,2013-07-08 02:15:00
9:35 PM,82.4,48.6,31,30.07,10.0,SSE,15.0,-,N/A,,Clear,150,2013-07-08 02:35:00
9:55 PM,81.5,48.4,31,30.07,10.0,SSE,15.0,-,N/A,,Clear,150,2013-07-08 02:55:00
10:15 PM,80.4,48.6,33,30.08,10.0,SSE,15.0,-,N/A,,Clear,160,2013-07-08 03:15:00
10:35 PM,79.3,49.3,35,30.09,10.0,SSE,12.7,-,N/A,,Clear,160,2013-07-08 03:35:00
10:55 PM,78.6,50.2,37,30.09,10.0,SSE,9.2,-,N/A,,Clear,160,2013-07-08 03:55:00
11:15 PM,77.4,50.9,39,30.10,10.0,SSE,8.1,-,N/A,,Clear,160,2013-07-08 04:15:00
11:35 PM,75.2,52.0,44,30.11,10.0,South,9.2,-,N/A,,Clear,170,2013-07-08 04:35:00
11:55 PM,75.2,52.3,45,30.11,10.0,SSE,9.2,-,N/A,,Clear,160,2013-07-08 04:55:00